Tracking 29892 objects as of 21-Nov-2024
HD Live streaming from Space Station
objects crossing your sky now

THORAD AGENA D DEB

Track THORAD AGENA D DEB now!
10-day predictions


NORAD ID: 4751
Int'l Code: 1970-025CZ
Perigee: 946.7 km
Apogee: 952.8 km
Inclination: 100.1 °
Period: 103.9 minutes
Semi major axis: 7320 km
RCS: 0.017 m2 (small)
Launch date: April 8, 1970
Source: United States (US)
Launch site: AIR FORCE WESTERN TEST RANGE (AFWTR)

Note: This is SATELLITE DEBRIS
Your satellite tracking list
Your tracking list is empty




NASA's NSSDC Master Catalog

Two Line Element Set (TLE):
1  4751U 70025CZ  24325.57933221  .00002017  00000-0  17965-2 0  9999
2  4751 100.1440   7.9591 0004132 128.7765 231.3758 13.86022110726442
Source of the keplerian elements: AFSPC